TimeCST,TemperatureF,Dew PointF,Humidity,Sea Level PressureIn,VisibilityMPH,Wind Direction,Wind SpeedMPH,Gust SpeedMPH,PrecipitationIn,Events,Conditions,WindDirDegrees,DateUTC
12:15 AM,21.2,19.4,93,30.01,10.0,South,3.5,-,N/A,,Clear,180,2012-12-07 06:15:00
12:34 AM,19.4,19.4,100,30.01,10.0,SW,5.8,-,N/A,,Clear,220,2012-12-07 06:34:00
12:55 AM,19.4,19.4,100,30.01,10.0,SSW,4.6,-,N/A,,Clear,200,2012-12-07 06:55:00
1:15 AM,19.4,17.6,93,30.02,10.0,SW,3.5,-,N/A,,Clear,220,2012-12-07 07:15:00
1:34 AM,19.4,19.4,100,30.02,10.0,Calm,Calm,-,N/A,,Clear,0,2012-12-07 07:34:00
1:55 AM,19.4,19.4,100,30.02,10.0,Calm,Calm,-,N/A,,Clear,0,2012-12-07 07:55:00
2:15 AM,17.6,17.6,100,30.02,10.0,Calm,Calm,-,N/A,,Clear,0,2012-12-07 08:15:00
2:34 AM,17.6,15.8,93,30.03,10.0,Calm,Calm,-,N/A,,Clear,0,2012-12-07 08:34:00
2:55 AM,17.6,17.6,100,30.03,10.0,NNW,3.5,-,N/A,,Clear,330,2012-12-07 08:55:00
3:15 AM,15.8,15.8,100,30.02,10.0,NNW,3.5,-,N/A,,Clear,340,2012-12-07 09:15:00
3:34 AM,15.8,15.8,100,30.03,10.0,North,4.6,-,N/A,,Clear,350,2012-12-07 09:34:00
3:55 AM,15.8,15.8,100,30.02,10.0,North,3.5,-,N/A,,Clear,360,2012-12-07 09:55:00
4:15 AM,15.8,15.8,100,30.02,10.0,North,3.5,-,N/A,,Clear,350,2012-12-07 10:15:00
4:35 AM,15.8,15.8,100,30.02,10.0,North,3.5,-,N/A,,Clear,350,2012-12-07 10:35:00
4:55 AM,15.8,15.8,100,30.02,10.0,NNW,4.6,-,N/A,,Clear,340,2012-12-07 10:55:00
5:14 AM,15.8,15.8,100,30.02,10.0,North,8.1,-,N/A,,Clear,360,2012-12-07 11:14:00
5:35 AM,17.6,17.6,100,30.01,10.0,North,6.9,-,N/A,,Clear,10,2012-12-07 11:35:00
5:55 AM,17.6,17.6,100,30.02,10.0,North,9.2,-,N/A,,Clear,360,2012-12-07 11:55:00
6:14 AM,17.6,17.6,100,30.03,10.0,North,6.9,-,N/A,,Clear,350,2012-12-07 12:14:00
6:35 AM,17.6,17.6,100,30.04,10.0,North,4.6,-,N/A,,Scattered Clouds,360,2012-12-07 12:35:00
6:55 AM,17.6,15.8,93,30.04,10.0,North,4.6,-,N/A,,Scattered Clouds,10,2012-12-07 12:55:00
7:14 AM,17.6,15.8,93,30.05,10.0,North,3.5,-,N/A,,Clear,360,2012-12-07 13:14:00
7:35 AM,17.6,15.8,93,30.05,10.0,North,4.6,-,N/A,,Clear,10,2012-12-07 13:35:00
7:55 AM,17.6,15.8,93,30.07,10.0,NNE,3.5,-,N/A,,Clear,20,2012-12-07 13:55:00
8:15 AM,17.6,15.8,93,30.07,10.0,North,5.8,-,N/A,,Clear,10,2012-12-07 14:15:00
8:35 AM,17.6,15.8,93,30.07,10.0,NNE,8.1,-,N/A,,Clear,30,2012-12-07 14:35:00
8:55 AM,15.8,14.0,93,30.08,10.0,NE,9.2,-,N/A,,Clear,40,2012-12-07 14:55:00
9:15 AM,15.8,14.0,93,30.07,10.0,NNE,10.4,-,N/A,,Clear,30,2012-12-07 15:15:00
9:35 AM,17.6,14.0,86,30.08,10.0,NE,5.8,-,N/A,,Clear,50,2012-12-07 15:35:00
9:55 AM,17.6,14.0,86,30.08,10.0,NE,4.6,-,N/A,,Mostly Cloudy,40,2012-12-07 15:55:00
10:15 AM,17.6,14.0,86,30.09,10.0,NNE,4.6,-,N/A,,Overcast,30,2012-12-07 16:15:00
10:35 AM,17.6,15.8,93,30.09,10.0,North,5.8,-,N/A,,Overcast,10,2012-12-07 16:35:00
10:55 AM,17.6,15.8,93,30.08,10.0,NNE,8.1,-,N/A,,Scattered Clouds,20,2012-12-07 16:55:00
11:15 AM,17.6,15.8,93,30.08,10.0,NNE,6.9,-,N/A,,Scattered Clouds,20,2012-12-07 17:15:00
11:35 AM,17.6,15.8,93,30.08,10.0,NNE,6.9,-,N/A,,Scattered Clouds,30,2012-12-07 17:35:00
11:55 AM,19.4,15.8,86,30.08,10.0,NE,5.8,-,N/A,,Mostly Cloudy,50,2012-12-07 17:55:00
12:15 PM,19.4,15.8,86,30.08,10.0,NE,4.6,-,N/A,,Overcast,50,2012-12-07 18:15:00
12:35 PM,19.4,15.8,86,30.07,10.0,ENE,6.9,-,N/A,,Overcast,60,2012-12-07 18:35:00
12:55 PM,19.4,15.8,86,30.07,10.0,NE,6.9,-,N/A,,Mostly Cloudy,40,2012-12-07 18:55:00
1:15 PM,19.4,15.8,86,30.06,10.0,NE,6.9,-,N/A,,Mostly Cloudy,50,2012-12-07 19:15:00
1:34 PM,19.4,15.8,86,30.06,10.0,NE,8.1,-,N/A,,Overcast,40,2012-12-07 19:34:00
1:55 PM,21.2,15.8,80,30.06,10.0,NE,8.1,-,N/A,,Overcast,50,2012-12-07 19:55:00
2:15 PM,21.2,15.8,80,30.05,10.0,NE,8.1,-,N/A,,Overcast,40,2012-12-07 20:15:00
2:34 PM,21.2,14.0,74,30.05,10.0,NNE,8.1,-,N/A,,Overcast,30,2012-12-07 20:34:00
3:15 PM,21.2,15.8,80,30.06,7.0,NNE,9.2,-,N/A,Snow,Light Snow,20,2012-12-07 21:15:00
3:35 PM,21.2,15.8,80,30.06,10.0,NE,9.2,-,N/A,Snow,Light Snow,40,2012-12-07 21:35:00
3:55 PM,21.2,15.8,80,30.07,10.0,NNE,9.2,-,N/A,,Overcast,30,2012-12-07 21:55:00
4:15 PM,21.2,15.8,80,30.07,7.0,NE,10.4,-,N/A,,Overcast,40,2012-12-07 22:15:00
4:35 PM,21.2,15.8,80,30.07,10.0,NE,6.9,-,N/A,,Overcast,40,2012-12-07 22:35:00
4:55 PM,21.2,15.8,80,30.07,10.0,NE,8.1,-,N/A,,Overcast,40,2012-12-07 22:55:00
5:15 PM,21.2,15.8,80,30.07,10.0,NE,5.8,-,N/A,,Overcast,50,2012-12-07 23:15:00
5:35 PM,21.2,15.8,80,30.07,10.0,NE,9.2,-,N/A,,Overcast,40,2012-12-07 23:35:00
5:55 PM,21.2,15.8,80,30.07,10.0,NE,6.9,-,N/A,,Overcast,40,2012-12-07 23:55:00
6:15 PM,21.2,15.8,80,30.07,10.0,NE,6.9,-,N/A,,Overcast,40,2012-12-08 00:15:00
6:35 PM,21.2,15.8,80,30.07,10.0,NE,8.1,-,N/A,,Overcast,40,2012-12-08 00:35:00
7:14 PM,21.2,15.8,80,30.07,10.0,NE,8.1,-,N/A,,Overcast,40,2012-12-08 01:14:00
7:35 PM,21.2,15.8,80,30.07,10.0,NNE,6.9,-,N/A,,Overcast,30,2012-12-08 01:35:00
7:54 PM,21.2,15.8,80,30.07,10.0,NNE,8.1,-,N/A,,Overcast,30,2012-12-08 01:54:00
8:35 PM,21.2,14.0,74,30.07,10.0,NNE,6.9,-,N/A,,Overcast,20,2012-12-08 02:35:00
8:55 PM,21.2,14.0,74,30.07,10.0,NNE,8.1,-,N/A,,Overcast,20,2012-12-08 02:55:00
9:35 PM,21.2,14.0,74,30.07,10.0,NNE,8.1,-,N/A,,Overcast,20,2012-12-08 03:35:00
9:55 PM,21.2,14.0,74,30.06,10.0,NNE,8.1,-,N/A,,Overcast,30,2012-12-08 03:55:00
10:15 PM,21.2,15.8,80,30.06,10.0,NNE,6.9,-,N/A,,Overcast,30,2012-12-08 04:15:00
10:34 PM,19.4,14.0,80,30.06,10.0,NNE,6.9,-,N/A,,Overcast,30,2012-12-08 04:34:00
10:55 PM,19.4,14.0,80,30.06,10.0,NNE,5.8,-,N/A,,Overcast,30,2012-12-08 04:55:00
11:15 PM,19.4,14.0,80,30.06,10.0,NNE,8.1,-,N/A,,Overcast,30,2012-12-08 05:15:00
11:34 PM,19.4,15.8,86,30.06,10.0,NNE,6.9,-,N/A,,Overcast,30,2012-12-08 05:34:00
11:55 PM,19.4,15.8,86,30.05,10.0,NE,6.9,-,N/A,,Overcast,40,2012-12-08 05:55:00